User: anonymous   Login
Location: Vancouver
(49.2500°N, 123.1330°W)
Time: 15:14:58
(UTC-07:00)
Language:

Cosmos 1939 Rocket - Orbit

View from above orbital plane
View from above orbital plane
View from above satellite
View from above satellite

Ground track
Ground track

The orbit data is extracted from the following two-line orbital elements,

1 19046U 88032B   15212.76401458  .00001848  00000-0  14577-3 0  9995
2 19046 097.6261 264.4893 0041530 148.7780 211.5924 15.01305751469615
Epoch (UTC): 31 July 2015 18:20:10
Eccentricity: 0.0041530
inclination: 97.6261°
perigee height: 534 km
apogee height: 592 km
right ascension of ascending node: 264.4893°
argument of perigee: 148.7780°
revolutions per day: 15.01305751
mean anomaly at epoch: 211.5924°
orbit number at epoch: 46961

The dashed part of the orbit path shows where the satellite is in the earth's shadow,  

DLR